Location: Boca do Mato
(22.9085°S, 43.2930°W)
Time: 01:04:01
(UTC+00:00)

EPKM - Visible Passes

Search period start: 24 October 2020 00:00
Search period end: 03 November 2020 00:00
Orbit: 290 x 17564 km, 25.9° (Epoch: 23 October)

Date Brightness Start Highest point End Pass type
(mag) Time Alt. Az. Time Alt. Az. Time Alt. Az.
25 Oct 6.9 01:53:59 10° W 01:54:40 11° W 01:54:40 11° W visible
25 Oct 5.3 20:54:08 10° W 22:44:45 81° NNW 22:50:55 36° ENE visible
27 Oct 6.1 00:45:38 10° WSW 01:01:14 27° WNW 01:01:14 27° WNW visible
27 Oct 6.0 18:52:50 10° W 21:45:19 89° NNW 21:57:29 15° ENE visible
28 Oct 5.3 23:30:01 10° WSW 00:06:49 47° NW 00:07:47 46° NNW visible
30 Oct 5.2 21:54:08 10° WSW 23:09:44 65° NNW 23:14:16 41° NNE visible
01 Nov 6.6 01:18:46 10° W 01:24:32 14° WNW 01:24:32 14° WNW visible
01 Nov 5.7 19:47:18 10° W 22:11:16 78° NNW 22:20:43 21° ENE visible
